SCP
0 0 0 0 0 0 0 0 0 0 0 0 0 0 0 0 0 0 0 0 0 0 0 0 0 0 0 0 0 0 0 0 0 0 0 0 0 0 0 0 0 0 0 0
0 0 0 0 0 0 0 0 0 0 0 0 0 0 0 0 0 0 0 0 0 0 0 0 0 0 0 0 0 0 0 0 0 0 0 0 0 0 0 0 0 0 0 0
0 0 0 0 0 0 0 0 0 0 0 0 0 0 0 0 0 0 0 0 0 0 0 0 0 0 0 0 0 0 0 0 0 0 0 0 0 0 0 0 0 0 0 0
0 0 0 0 0 0 0 0 0 0 0 0 0 0 0 0 0 0 0 0 0 0 0 0 0 0 0 0 0 0 0 0 0 0 0 0 0 0 0 0 0 0 0 0
0 0 0 0 0 0 0 0 0 0 0 0 0 0 0 0 0 0 0 0 0 0 0 0 0 0 0 0 0 0 0 0 0 0 0 0 0 0 0 0 0 0 0 0
0 0 0 0 0 0 0 0 0 0 0 0 0 0 0 0 0 0 0 0 0 0 0 0 -0 -0 0 0 0 0 0 0 0 0 0 0 0 0 0 0 0 0 0 0
0 0 0 0 0 0 0 0 0 0 0 0 0 0 0 0 0 0 0 0 0 0 0 0 -0 -0 -0 0 0 0 0 0 0 0 0 0 0 0 0 0 0 0 0 0
0 0 0 0 0 0 0 0 0 0 0 0 0 0 0 0 0 0 0 0 0 0 0 0 -0 -0 -0 0 0 0 0 0 0 0 0 0 0 0 0 0 0 0 0 0
0 0 0 0 0 0 0 0 0 0 0 0 0 0 0 0 0 0 0 0 0 0 0 0 0 -0 0 0 0 0 0 0 0 0 0 0 0 0 0 0 0 0 0 0
0 0 0 0 0 0 0 0 0 0 0 0 0 0 0 0 0 0 0 0 0 0 0 0 0 0 0 0 0 0 0 0 0 0 0 0 0 0 0 0 0 0 0 0
0 0 0 0 0 0 0 0 0 0 0 0 0 0 0 0 0 0 0 0 0 0 0 0 0 0 0 0 0 0 0 0 0 0 0 0 0 0 0 0 0 0 0 0
0 0 0 0 0 0 0 0 0 0 0 0 0 0 0 0 0 0 0 0 0 0 0 0 0 0 0 0 0 0 0 0 0 0 0 0 0 0 0 0 0 0 0 0
0 0 0 0 0 0 0 0 0 0 0 0 0 0 0 0 0 0 0 0 0 0 0 0 0 0 0 0 0 0 0 0 0 0 0 0 0 0 0 0 0 0 0 0
0 0 0 0 0 0 0 0 0 0 0 0 0 0 0 0 0 0 0 0 0 0 0 0 0 0 0 0 0 0 0 0 0 0 0 0 0 0 0 0 0 0 0 0
0 0 0 0 0 0 0 0 0 0 0 0 0 0 0 0 0 0 0 0 0 0 0 0 0 0 0 0 0 0 0 0 0 0 0 0 0 0 0 0 0 0 0 0
0 0 0 0 0 0 0 0 0 0 0 0 0 0 0 0 0 0 0 0 0 0 0 0 0 0 0 0 0 0 0 0 0 0 0 0 0 0 0 0 0 0 0 0
0 0 0 -0 -0 0 0 0 0 0 0 0 0 0 0 0 0 0 0 0 0 0 0 0 0 0 0 0 0 0 0 0 0 0 0 0 0 0 0 0 0 0 0 0
0 0 0 -0 -0 0 0 -0 -0 0 0 0 0 0 0 0 0 0 0 0 0 0 0 0 0 0 0 -0 -0 0 0 0 0 0 0 0 0 0 0 0 0 0 0 0
0 0 0 -0 0 0 0 -0 -0 -0 0 0 0 0 0 0 0 0 0 0 0 0 0 0 0 0 -0 -0 -0 0 0 0 0 0 0 0 0 0 0 0 0 0 0 0
0 0 0 0 0 0 0 -0 -0 -0 -0 0 0 0 0 0 0 0 0 0 0 0 0 -0 -0 0 -0 -0 -0 0 0 0 0 0 0 0 0 0 0 0 0 0 0 0
0 0 0 0 0 0 0 -0 -0 -0 0 0 0 0 0 0 0 0 0 0 0 0 0 -0 -0 -0 -0 -0 -0 0 0 0 0 0 0 0 0 0 0 0 0 0 0 0
0 0 0 0 0 0 0 -0 -0 -0 0 0 0 0 0 0 0 0 0 0 0 0 0 -0 -0 -0 -0 -0 -0 -0 0 0 0 0 0 0 0 0 0 0 0 0 0 0
0 0 0 0 0 0 0 0 0 0 0 0 0 0 0 0 0 0 0 0 0 -0 -0 0 0 0 0 0 0 0 0 0 0 0 0 0 0 0 0 0 0 0 0 0
0 0 0 0 0 0 0 0 0 0 0 0 0 0 0 0 0 0 0 0 0 -0 -0 -0 0 0 0 0 0 -0 -0 0 0 0 0 0 0 0 0 0 0 0 0 0
0 0 0 0 0 0 0 0 0 0 0 0 0 0 0 0 0 0 0 0 0 -0 -0 -0 0 0 0 0 0 -0 -0 0 0 0 0 0 0 0 0 0 0 0 0 0
0 0 0 0 0 0 0 0 0 0 0 0 0 0 0 0 0 0 0 0 -0 -0 -0 -0 -0 -0 0 0 0 -0 -0 0 0 0 0 0 0 0 0 0 0 0 0 0
Wind_Speed
2 3 3 6 5 3 4 3 3 3 1 1 5 7 7 3 4 5 5 4 3 3 2 1 1 1 2 2 2 2 2 2 1 0 0 1 1 1 1 1 1 1 1 1
3 3 4 2 3 2 2 3 2 2 1 1 3 8 6 5 6 7 7 6 5 3 2 1 1 1 1 1 1 1 2 2 2 1 1 1 1 1 1 1 1 1 1 1
5 2 3 4 3 3 3 4 3 2 2 2 3 7 5 4 3 4 5 5 4 5 4 3 1 1 0 1 1 1 1 1 2 2 1 1 1 1 1 1 1 1 1 1
2 2 2 3 3 5 4 3 3 2 1 3 0 6 6 4 4 5 6 5 5 4 4 3 2 1 1 1 1 1 1 1 1 1 1 0 0 1 1 1 1 2 1 1
2 1 2 3 3 4 3 2 2 2 2 2 1 3 8 1 5 7 7 6 6 5 4 4 3 3 2 1 1 1 2 2 2 2 1 1 1 1 1 1 1 2 1 1
1 1 1 2 1 3 4 4 4 3 2 4 5 5 9 5 7 5 4 4 4 4 3 2 2 1 0 1 1 1 1 2 2 2 1 1 1 1 0 1 1 2 1 1
1 1 0 2 3 1 3 4 2 2 1 6 2 5 10 5 5 5 5 4 3 2 2 2 1 1 0 1 1 1 1 2 2 2 2 1 1 1 2 2 2 2 2 2
2 3 2 1 4 4 4 5 6 5 5 4 2 7 8 4 3 3 3 3 2 2 1 2 2 1 1 1 0 1 1 2 2 2 2 2 1 1 1 2 2 2 2 3
5 3 1 0 0 5 5 4 3 5 1 2 6 7 8 1 2 2 1 1 2 2 2 1 1 1 1 1 1 1 1 1 2 3 2 2 2 1 2 2 1 2 2 2
4 2 2 1 1 1 3 6 4 4 3 4 5 5 6 4 4 3 2 2 3 2 1 1 1 1 1 1 1 1 1 1 1 2 2 2 2 2 2 1 2 2 2 2
2 3 1 1 3 5 3 3 4 3 3 4 4 8 4 5 3 3 3 3 2 2 1 1 1 1 1 2 2 2 2 2 2 2 2 2 2 2 2 2 2 2 2 2
2 4 2 4 2 1 2 5 6 5 4 4 3 9 3 2 2 2 2 2 2 1 1 0 1 1 1 2 2 2 2 2 2 2 2 2 2 2 2 2 3 2 2 2
4 5 2 3 2 1 1 2 3 3 3 4 5 9 2 1 1 1 1 2 2 1 0 1 1 1 1 2 2 2 3 3 3 2 2 2 3 3 3 3 3 3 3 3
4 3 5 7 5 4 4 4 4 5 4 5 9 9 7 6 5 4 2 2 2 1 0 0 1 1 2 2 2 2 3 3 3 3 2 3 3 3 3 3 3 3 3 3
4 2 2 3 2 2 4 6 7 8 8 8 8 9 11 7 5 5 3 2 2 2 1 1 2 2 2 2 2 2 3 3 3 3 3 3 3 3 3 3 3 3 3 3
3 3 1 2 2 3 5 8 9 9 7 8 8 11 8 5 3 3 4 3 3 3 3 3 3 2 2 2 2 2 3 3 3 3 3 3 3 3 3 3 3 3 3 3
2 4 2 2 3 3 7 9 10 7 7 8 10 10 3 3 4 5 4 4 4 4 4 3 3 3 3 2 2 2 3 3 3 3 3 3 3 4 4 4 3 3 3 3
5 4 2 1 2 6 7 2 5 6 6 7 6 5 4 6 4 4 5 5 5 4 4 3 3 3 2 2 2 2 2 2 2 3 3 3 3 4 4 3 4 4 3 3
3 5 3 2 2 8 6 2 3 4 6 5 7 6 4 3 3 4 3 4 4 4 4 3 3 2 2 2 2 1 2 2 2 3 3 3 3 4 4 4 4 3 3 3
2 3 4 3 3 7 5 1 1 2 5 3 4 5 3 0 1 5 2 1 2 2 2 2 1 1 1 2 1 1 2 2 3 4 4 4 3 4 4 4 4 3 3 4
3 2 3 4 5 9 4 1 2 3 6 2 3 4 3 4 5 3 2 2 2 2 2 1 1 1 2 2 1 2 2 3 4 4 4 4 4 4 4 4 3 3 3 3
7 6 5 5 5 9 2 3 5 6 2 2 2 3 3 4 3 3 2 2 2 2 2 1 1 2 2 1 1 2 3 3 3 3 3 4 4 3 3 3 3 3 3 3
6 7 6 8 8 3 3 5 4 2 3 3 3 3 3 3 3 3 3 3 2 2 2 2 1 2 2 1 1 3 4 3 3 3 3 3 4 3 3 2 3 3 2 2
3 2 3 4 7 4 4 4 3 3 3 3 3 2 3 4 4 3 3 3 2 2 2 1 1 2 2 2 2 3 3 2 2 3 3 3 3 3 3 3 2 2 2 2
4 4 3 5 6 4 4 5 4 3 3 2 2 2 3 3 4 3 3 3 3 3 2 1 2 2 3 3 3 3 2 1 2 2 3 3 3 3 3 3 3 3 3 3
5 7 7 7 5 4 5 3 3 3 3 3 3 3 2 3 4 3 3 3 3 3 2 2 2 3 3 2 3 3 2 1 1 2 3 2 2 3 2 3 3 4 5 6
Wind_Direction
61 98 193 209 202 190 165 177 220 242 284 209 235 256 263 239 210 218 223 223 232 251 277 325 17 32 48 32 33 27 18 4 34 23 213 206 240 257 260 255 274 256 237 214
66 233 227 185 179 153 168 195 229 291 339 231 267 270 263 225 219 214 215 220 223 239 279 287 316 31 53 17 9 13 7 352 352 344 297 234 230 229 239 276 295 273 248 225
177 218 169 160 170 181 206 202 213 242 342 0 322 289 255 242 228 228 225 222 224 217 226 242 247 268 7 341 322 326 331 345 348 351 22 23 34 30 349 313 304 314 297 252
209 254 179 168 190 178 227 207 191 192 197 282 186 279 270 237 245 237 233 225 227 230 228 233 238 246 248 277 316 328 325 345 353 8 29 50 202 261 272 290 295 312 305 294
216 182 167 196 203 171 188 131 138 154 165 285 257 245 279 233 244 243 232 226 227 225 220 223 231 232 236 264 326 337 340 351 0 15 355 267 255 243 289 323 317 321 305 288
226 239 179 180 120 147 137 88 62 55 80 255 223 205 272 231 228 243 235 229 230 228 227 235 241 221 309 2 13 9 7 351 354 2 352 305 245 241 322 320 306 307 304 288
328 295 271 133 116 103 121 112 49 355 312 248 212 217 252 248 236 232 232 231 231 223 217 226 238 253 323 7 7 1 10 346 344 346 334 307 269 234 236 258 267 295 300 286
164 258 225 188 173 169 177 154 166 197 223 272 258 236 254 259 268 262 246 236 229 231 229 231 230 233 251 279 331 356 357 344 344 342 332 322 307 290 274 274 275 275 281 281
172 228 341 230 194 148 152 183 157 132 135 269 261 275 296 268 308 316 301 293 259 253 247 246 266 269 251 261 279 289 334 350 342 337 334 323 314 299 291 297 295 290 287 294
148 187 296 307 85 34 146 142 121 146 172 247 274 261 252 261 262 284 300 297 290 294 306 320 349 352 335 313 312 336 348 323 320 330 326 325 316 308 301 307 306 301 298 297
132 144 316 2 197 187 146 145 142 141 163 177 253 265 230 221 226 242 269 277 271 280 297 319 345 356 355 359 0 3 359 352 345 336 328 327 325 329 327 313 303 301 301 302
136 125 211 252 275 263 196 180 158 168 214 191 206 267 283 221 241 251 276 296 295 275 278 322 7 2 0 356 357 1 355 350 337 331 337 334 330 338 336 324 319 313 301 298
139 124 89 344 335 341 218 197 175 146 141 178 200 261 300 1 312 295 270 291 304 309 19 43 27 353 342 345 349 351 350 345 342 345 348 345 339 337 329 321 321 321 310 308
118 141 177 201 217 191 212 211 181 163 190 216 227 252 281 288 291 297 284 274 283 282 263 292 315 315 324 332 338 340 341 343 345 351 349 339 331 325 317 317 323 322 318 312
108 167 211 251 265 221 229 226 205 206 208 214 238 242 260 264 271 280 279 280 280 273 272 273 289 303 315 325 334 335 335 340 342 344 341 329 326 325 324 323 319 319 319 311
102 147 134 293 283 258 260 245 225 227 227 232 252 265 261 266 263 264 263 256 256 257 262 273 284 291 296 301 312 325 326 328 336 333 322 323 328 327 323 318 318 320 318 311
137 139 137 261 314 338 269 233 210 211 210 197 225 242 245 260 257 251 247 248 251 254 254 254 261 264 273 279 289 293 302 317 326 322 318 321 323 319 317 316 321 316 312 314
143 135 145 178 50 246 250 224 198 211 234 217 236 255 246 246 266 262 240 234 246 250 251 254 257 265 270 270 286 292 302 309 312 313 312 314 314 312 311 312 309 308 309 309
156 146 141 150 232 276 285 233 177 194 262 227 229 254 270 285 318 288 240 213 227 241 245 245 248 253 261 268 274 293 304 303 306 304 302 303 305 304 305 304 303 305 307 308
91 124 138 153 199 247 259 226 183 115 281 250 209 232 247 115 275 272 277 248 253 269 261 254 258 259 260 270 255 248 277 288 289 292 294 297 298 295 295 296 299 302 299 300
141 150 180 187 226 262 257 214 123 176 251 264 216 227 211 211 229 257 300 305 283 286 275 247 231 247 251 257 241 257 270 275 283 294 299 301 298 293 292 298 299 298 302 308
173 172 188 172 211 252 206 141 188 226 271 258 240 229 224 241 267 279 280 284 292 303 301 278 258 278 276 247 226 261 271 281 292 295 297 298 299 298 306 306 305 303 301 306
200 193 188 196 217 253 189 212 235 238 250 248 234 239 225 242 258 266 269 271 283 289 288 290 264 286 295 279 240 256 278 291 299 305 303 303 307 306 303 294 296 301 298 294
244 201 189 248 263 258 254 264 270 249 247 255 245 241 223 239 255 261 264 270 277 286 278 274 269 279 291 290 283 268 282 288 298 302 303 304 308 309 304 297 291 290 286 287
213 172 199 253 275 296 267 248 257 263 265 276 278 255 234 234 252 250 258 267 270 278 281 262 252 267 279 289 295 299 294 288 291 297 299 304 307 304 303 302 288 285 270 269
195 183 187 228 228 214 252 259 254 252 264 263 266 278 264 233 246 256 259 260 262 268 271 277 276 279 285 291 294 298 290 278 283 298 303 301 301 300 300 302 307 299 288 293